GEFSSE_500_meanwind_156.txt.gz
Wind_Speed
1 1 1 1 1 2 2 3 4 4 4 5 6 6 5 5 5 5 5 5 4 4 4 5 5 6 6 6 6 7 8 8 9 9 9 9 9 9 9 9 8 9 9
1 0 0 1 1 2 2 4 4 4 5 6 6 7 6 5 5 5 5 5 5 5 5 5 5 6 6 6 7 8 8 9 9 10 10 10 10 10 9 9 9 9 10
1 0 0 1 1 1 2 3 4 5 6 6 6 6 6 6 5 5 4 5 5 5 5 6 6 6 6 6 7 8 8 9 9 10 10 10 10 10 10 10 10 10 10
2 1 1 1 0 1 2 3 4 5 6 6 6 6 6 6 6 6 5 5 6 6 6 6 6 7 7 7 8 8 9 9 10 10 10 11 11 11 11 10 10 11 11
2 2 2 2 1 1 2 3 4 5 6 7 6 6 7 7 7 7 7 7 7 7 7 7 7 7 8 8 9 9 9 10 10 10 11 11 11 11 11 11 11 11 11
3 3 2 2 1 1 2 3 5 6 6 7 7 7 7 8 8 8 8 8 7 7 7 7 8 8 8 9 9 10 10 10 11 11 11 11 11 11 11 11 11 11 11
4 3 3 2 1 1 2 4 5 6 7 7 7 8 8 8 8 8 8 7 7 6 6 7 7 7 8 9 10 10 11 11 11 11 12 12 12 12 11 11 11 11 11
4 3 3 3 1 1 2 4 5 6 7 7 7 8 8 8 8 8 8 8 6 6 5 5 6 6 8 9 10 11 11 12 12 12 12 12 12 12 12 12 12 11 11
4 3 3 2 1 0 2 3 4 5 6 7 8 8 8 9 8 8 8 7 6 5 4 5 5 6 8 8 10 10 11 12 12 13 12 12 13 13 12 12 12 12 11
5 4 3 2 1 0 1 2 4 5 6 7 8 8 8 8 8 8 7 6 5 4 4 3 4 5 7 8 9 10 10 11 12 13 13 13 13 13 13 12 12 11 11
5 4 4 2 1 0 1 2 4 5 6 7 8 8 8 8 8 7 7 6 5 4 3 3 3 4 5 7 8 9 10 11 12 12 13 13 13 13 13 13 12 12 11
5 5 4 2 1 1 0 2 3 5 6 8 8 9 8 8 8 8 7 6 5 4 3 3 3 4 5 6 7 8 9 11 11 12 12 13 13 12 12 12 12 12 11
5 5 4 3 2 2 1 2 3 5 7 8 8 9 9 9 9 8 7 6 5 4 3 2 2 3 5 6 7 7 9 10 11 11 12 12 12 12 12 12 11 11 11
5 6 5 4 3 2 2 2 2 4 6 7 8 9 9 9 9 9 8 7 5 4 3 1 1 3 4 6 7 7 8 9 10 10 11 11 11 11 11 11 11 11 11
6 6 6 5 4 3 2 2 2 4 6 7 8 9 9 10 10 9 8 7 6 4 3 1 1 2 4 5 7 7 8 9 10 10 10 10 11 11 10 10 10 10 11
7 7 7 6 4 4 3 2 2 4 5 7 8 9 9 10 10 9 9 8 7 5 3 2 2 3 4 6 7 7 8 9 9 10 9 9 9 9 9 9 9 10 10
8 7 7 6 5 4 3 2 2 4 5 7 8 9 9 10 10 10 10 9 8 6 5 4 4 5 5 6 7 7 8 9 9 9 9 9 8 8 8 8 8 9 9
8 7 7 6 6 4 3 2 3 4 5 6 7 8 10 10 11 11 11 10 10 9 8 7 7 7 7 7 7 7 8 9 9 9 9 8 8 8 7 7 7 8 8
9 8 7 7 6 4 3 2 2 3 4 6 7 8 10 10 10 11 11 11 11 10 9 9 9 8 8 8 7 7 7 8 8 8 7 7 7 7 7 6 6 6 7
10 10 8 8 6 5 4 3 2 3 4 5 7 8 9 10 10 10 11 11 10 10 9 9 9 9 9 9 8 8 8 8 7 7 6 6 6 5 5 5 5 5 5
11 10 9 8 7 5 4 3 2 2 3 5 6 7 8 10 10 10 11 11 11 11 10 9 9 9 9 9 9 9 9 8 7 7 6 5 5 5 4 4 4 4 5
12 10 10 9 7 6 5 4 3 2 2 4 6 7 8 9 10 10 11 11 11 11 11 11 10 10 9 9 9 9 9 8 7 6 6 5 4 5 4 3 3 4 4
13 12 11 10 8 7 6 5 3 2 2 3 5 6 7 8 9 10 10 10 11 11 11 11 11 10 10 9 9 9 8 7 6 6 5 4 4 3 3 3 2 3 3
14 13 12 11 9 8 6 5 4 3 2 3 4 5 7 7 8 9 10 10 10 10 11 10 10 10 10 9 9 8 7 7 6 5 4 3 3 3 2 1 1 2 2
14 14 14 12 10 9 7 6 5 4 3 3 3 5 6 7 7 8 9 9 10 10 10 10 10 10 9 9 9 8 7 7 6 5 4 3 3 2 2 1 1 1 0
15 15 14 13 11 10 8 7 6 4 3 3 2 3 5 6 6 7 8 8 9 9 10 10 10 9 9 9 9 8 8 7 6 6 4 3 3 2 1 1 0 0 1

GEFSSE_500_meanwind_162.txt.gz
Wind_Speed
2 2 3 3 2 2 2 2 2 2 2 2 3 3 3 3 3 3 4 4 4 4 4 5 6 7 8 8 8 8 8 8 8 8 9 8 8 7 7 7 8 8 8
3 3 3 3 2 2 2 2 2 3 3 4 4 4 4 4 3 4 4 5 5 5 5 6 6 7 8 8 8 9 9 9 9 9 9 9 8 8 8 8 8 9 9
4 4 4 5 4 3 3 2 3 4 4 5 5 5 5 4 5 5 5 5 6 6 6 7 7 7 8 9 9 9 9 9 9 9 10 9 9 9 9 9 9 9 8
5 5 5 4 3 3 2 2 3 4 5 5 6 5 5 5 5 6 6 6 6 6 7 7 8 8 9 10 10 10 10 10 10 10 10 10 10 10 9 9 9 9 9
6 5 5 4 3 3 3 3 4 5 5 6 6 6 6 6 6 6 6 7 7 7 8 8 8 8 9 10 10 11 10 11 11 11 11 11 11 10 10 10 10 10 9
6 5 5 4 4 4 4 4 4 5 5 6 7 7 7 7 7 6 6 6 6 7 8 8 9 9 9 10 11 11 11 11 11 12 11 11 11 11 10 10 10 10 10
6 6 5 5 4 4 4 3 4 5 5 6 7 8 8 7 6 6 6 6 6 7 7 8 8 9 10 10 11 11 11 11 11 12 11 11 11 11 10 10 10 10 10
6 6 6 4 4 4 3 3 4 5 5 7 8 7 7 7 7 6 6 6 6 6 7 7 8 9 10 10 10 11 11 11 11 11 11 11 11 11 11 11 10 10 10
6 6 5 4 3 3 3 3 5 5 6 7 7 8 8 7 6 6 6 6 6 6 6 6 7 8 9 9 10 11 11 11 11 11 11 11 11 12 11 11 10 10 10
6 5 5 4 3 2 2 3 4 5 5 7 7 8 8 8 7 7 6 6 5 5 5 4 5 6 7 8 9 10 11 11 11 11 11 11 11 12 11 11 10 10 10
6 6 5 4 3 2 2 3 4 4 5 6 7 8 8 8 8 7 7 6 5 4 4 4 4 5 6 7 8 9 10 10 11 11 11 11 11 11 11 11 10 10 10
7 6 5 4 3 2 1 3 3 4 5 7 7 8 8 8 8 8 7 6 5 3 3 3 3 4 6 7 8 8 9 9 10 10 10 10 11 11 11 11 10 10 9
6 5 5 4 2 1 1 2 3 4 5 7 8 9 9 9 9 8 7 6 5 4 3 3 3 4 5 6 7 8 8 8 9 9 10 10 10 9 10 10 10 10 10
6 6 5 4 2 1 0 1 3 4 6 7 9 9 9 10 9 8 7 6 6 5 4 3 3 3 4 5 5 6 7 7 8 9 9 9 9 9 9 9 9 10 9
6 5 5 4 2 1 0 1 2 4 6 7 9 9 10 10 9 8 7 7 6 5 4 3 2 1 3 4 4 5 6 6 7 8 8 8 9 8 8 8 8 9 9
5 5 5 4 3 2 1 1 2 4 6 7 9 9 10 9 9 8 8 7 6 5 4 3 2 1 2 3 4 4 4 5 6 6 6 7 7 8 7 7 7 7 8
6 5 5 5 4 3 1 1 2 3 5 7 8 9 10 10 9 9 8 8 7 6 5 4 4 3 3 3 4 4 4 4 5 5 5 5 6 6 6 7 6 7 7
6 5 6 6 4 3 2 2 2 3 5 7 8 9 9 10 10 9 9 8 7 6 6 5 5 5 4 4 4 4 5 4 4 4 3 4 4 5 5 5 5 5 6
7 6 6 6 5 3 3 2 2 3 5 7 8 8 9 10 10 10 9 9 8 7 6 6 6 6 6 6 5 5 5 5 4 3 3 3 3 4 4 4 4 4 5
7 7 6 7 6 4 3 2 2 3 5 6 7 8 9 9 10 10 9 9 8 7 7 7 7 7 7 7 6 6 5 5 4 3 3 2 2 3 3 2 3 3 4
7 7 7 7 6 4 3 2 2 3 4 5 6 7 8 9 9 10 9 9 9 8 8 8 7 7 7 7 6 6 5 5 4 4 3 2 2 2 1 1 1 1 3
7 7 7 7 6 5 3 2 2 2 3 5 6 7 7 8 8 9 9 9 9 8 8 8 8 7 7 7 7 6 6 6 5 4 4 3 2 2 1 0 1 2 2
9 8 8 7 7 5 4 3 1 2 2 4 5 6 7 8 8 8 8 9 9 8 8 8 8 7 7 7 7 6 6 6 6 5 4 3 2 2 1 1 1 2 2
9 8 7 8 8 6 5 3 2 1 1 3 4 5 6 7 7 8 8 8 8 8 8 8 8 8 7 6 6 6 5 6 6 5 4 4 3 3 2 2 2 2 3
9 9 8 8 8 7 5 4 3 1 1 2 3 4 5 6 6 7 7 7 7 7 7 7 7 7 7 6 6 5 5 5 5 5 5 4 4 4 3 3 3 3 4
11 10 9 9 9 7 6 5 4 2 2 1 2 3 4 4 5 6 6 6 7 7 7 7 7 7 7 6 6 6 5 5 5 4 4 4 4 4 4 4 3 3 4

GEFSSE_500_meanwind_168.txt.gz
Wind_Speed
2 2 2 2 2 3 3 3 3 3 4 4 5 5 5 5 5 5 6 6 6 6 6 7 8 8 9 9 9 9 9 9 10 10 10 10 9 9 9 9 9 9 9
3 2 2 2 3 3 2 3 3 3 4 4 4 5 5 5 6 7 7 7 7 7 7 7 8 9 9 9 10 10 10 9 10 10 10 10 9 9 9 8 8 8 9
3 3 3 3 3 3 2 3 3 4 4 4 4 5 6 6 7 7 8 8 8 8 7 7 8 9 9 9 9 10 10 10 10 10 10 10 9 9 9 8 8 8 8
3 3 4 3 3 2 2 3 3 4 4 5 5 6 6 6 7 7 8 9 9 8 8 8 9 10 10 10 10 10 11 11 11 10 10 11 10 10 9 9 9 9 9
3 3 4 3 2 2 2 3 4 4 5 5 6 5 5 6 6 7 8 8 9 9 9 9 9 10 10 10 10 10 11 11 11 11 11 11 11 10 10 10 10 9 9
4 4 4 3 3 3 3 4 4 4 4 5 5 5 5 6 6 7 7 7 7 8 9 9 10 10 10 10 10 11 11 11 11 11 11 11 11 11 10 10 10 10 9
5 5 4 4 3 3 3 4 4 4 5 5 5 5 5 6 6 7 7 7 7 8 9 9 9 10 10 10 11 11 11 11 11 11 11 11 11 11 11 11 11 10 10
5 5 4 3 3 3 3 4 4 4 4 4 4 5 5 6 6 6 7 7 7 7 8 9 9 9 10 10 11 11 11 11 11 11 11 11 11 11 11 11 10 10 10
5 4 3 3 3 3 3 3 3 3 3 4 4 4 5 6 6 6 6 6 6 6 6 7 8 8 9 10 10 11 11 12 12 12 11 11 11 11 11 11 10 10 10
5 3 3 3 2 2 3 2 2 3 4 4 4 5 5 6 6 6 5 5 5 5 5 5 6 6 7 8 9 9 10 11 11 11 11 11 11 11 11 11 11 10 10
4 3 3 3 3 2 2 1 2 3 4 4 4 5 6 6 6 5 4 4 4 4 4 4 5 5 6 7 8 8 9 10 11 10 10 10 10 10 10 10 10 10 10
4 4 4 3 2 2 1 1 1 2 3 4 4 5 6 6 6 5 4 4 3 3 4 4 4 5 6 7 7 8 8 9 9 9 10 10 10 10 10 10 10 10 10
4 4 3 3 3 2 1 1 1 2 3 4 5 5 6 6 6 5 5 4 3 3 2 3 4 4 5 6 7 7 8 8 8 9 9 9 9 10 10 10 10 10 10
4 4 4 4 4 3 1 0 0 2 3 4 5 6 6 6 6 6 6 5 4 3 1 0 2 4 4 5 6 7 7 7 7 8 9 9 9 9 9 9 9 9 9
4 4 4 4 4 3 2 1 0 2 3 4 5 6 6 6 6 6 6 5 5 3 2 1 1 2 3 5 5 6 6 6 7 7 7 8 8 8 8 8 8 8 9
4 4 4 3 3 3 2 2 1 2 3 4 4 5 6 6 7 7 7 7 6 5 4 3 2 3 3 4 4 5 5 5 6 6 7 7 7 7 7 7 7 8 8
3 4 4 3 3 3 3 3 2 1 2 3 4 5 6 6 7 7 7 7 6 6 5 3 3 3 4 4 4 4 4 5 5 5 5 5 6 6 6 6 6 7 8
4 4 4 4 4 4 4 3 3 2 3 4 5 6 6 7 7 7 8 7 7 6 6 5 5 5 5 5 5 4 4 4 4 4 5 5 5 5 6 5 6 6 7
4 4 5 5 5 4 4 3 3 3 3 4 5 6 7 8 8 8 8 7 7 7 6 6 5 5 6 6 6 5 5 4 4 4 4 4 4 5 5 5 5 5 6
4 4 5 6 5 5 5 4 3 3 3 4 5 6 7 7 8 8 8 8 8 7 7 7 7 6 6 6 6 6 6 5 5 4 4 4 3 3 3 3 3 3 4
5 4 5 7 6 6 5 4 4 3 3 4 5 6 7 7 8 9 9 9 8 8 8 8 8 7 7 6 7 7 7 6 6 5 5 4 3 3 2 3 2 2 3
6 5 6 7 7 6 6 5 4 3 3 4 5 6 7 7 8 8 8 8 8 8 8 8 8 7 7 7 7 7 6 5 5 5 5 4 4 3 2 3 3 3 3
7 6 6 7 7 6 6 5 4 3 3 3 4 5 6 6 7 7 8 8 8 8 8 8 8 8 7 7 7 6 6 5 5 5 4 3 3 3 2 2 2 2 1
8 8 6 7 7 7 6 6 5 4 3 3 3 5 6 6 7 7 8 8 8 8 8 8 8 7 7 6 6 6 5 5 5 5 4 3 3 3 3 2 2 1 1
9 9 8 8 8 7 7 7 6 4 3 3 3 4 5 6 7 7 7 7 7 7 7 7 8 7 7 6 6 5 5 5 5 5 4 4 3 3 2 2 2 1 0
9 10 9 8 8 8 7 7 6 5 3 3 3 3 4 5 6 6 6 7 7 7 7 7 7 7 6 5 5 5 5 4 4 4 4 4 3 3 2 2 2 1 1

GEFSSE_500_meanwind_174.txt.gz
Wind_Speed
3 3 3 3 3 3 4 4 3 4 4 5 4 4 5 5 5 5 5 5 5 5 6 6 7 7 7 8 8 8 8 8 8 8 8 8 8 7 7 8 9 8 8
3 3 4 3 3 3 4 4 3 4 5 5 6 6 6 6 6 6 6 5 6 6 7 7 7 7 8 8 9 9 9 9 9 9 9 8 8 8 7 8 9 9 9
3 3 3 3 3 3 3 3 4 4 4 6 7 7 7 7 7 7 7 7 7 7 7 7 8 8 8 9 9 9 10 9 9 9 9 9 8 8 8 8 8 9 8
4 3 3 3 3 2 2 3 3 4 5 6 6 7 7 7 7 7 7 8 8 8 8 8 8 9 9 9 10 10 10 10 10 10 9 10 9 8 8 8 8 8 8
4 4 3 3 3 2 3 4 4 5 5 6 6 6 7 7 7 7 7 8 8 9 8 8 9 9 10 10 10 10 10 10 10 10 10 10 10 9 8 8 8 8 8
5 4 4 3 3 3 3 4 5 5 5 6 6 6 6 7 7 7 7 8 8 9 8 8 8 9 10 9 10 10 10 10 10 10 10 10 10 10 9 9 9 8 8
5 4 4 4 4 4 4 4 5 5 5 6 6 6 6 6 6 6 7 7 8 8 8 8 8 8 9 10 10 10 10 10 10 10 10 10 10 10 10 9 9 9 9
5 5 5 4 4 4 4 4 5 5 5 5 5 5 6 6 6 6 6 7 7 7 8 8 8 8 8 9 9 10 9 9 10 10 10 9 10 10 10 9 9 9 9
5 5 5 4 4 4 4 4 5 5 5 5 5 5 5 5 5 6 6 6 7 7 7 8 8 8 8 8 9 9 9 9 10 10 9 9 10 10 10 10 9 9 9
5 5 5 4 4 4 4 4 4 4 4 4 4 4 4 4 5 6 6 6 6 6 6 7 7 7 7 8 8 9 9 9 9 10 9 9 9 10 10 10 10 10 9
6 5 5 4 4 4 4 3 3 3 3 3 3 4 4 4 5 5 5 5 5 5 5 5 6 6 6 7 7 8 9 9 8 9 9 9 9 9 10 10 10 10 10
5 5 5 3 3 3 2 2 3 2 2 2 3 4 4 5 5 5 5 4 4 4 5 5 5 5 6 6 7 8 8 8 8 8 8 9 9 9 9 9 10 10 10
4 4 4 3 3 2 2 2 2 1 2 2 2 3 4 5 5 4 4 3 2 2 3 4 4 5 5 5 7 8 7 8 8 8 8 9 9 9 9 9 9 9 9
4 4 4 3 2 2 2 1 1 2 2 2 2 3 4 4 4 4 3 2 1 1 1 3 3 3 4 4 6 6 7 7 7 7 7 8 8 8 8 8 8 9 9
3 3 3 3 3 2 1 1 1 1 1 1 2 3 3 4 4 4 3 2 2 1 0 1 1 2 3 4 5 5 5 6 6 6 6 7 7 8 8 7 8 8 9
3 4 4 4 4 3 1 1 1 2 2 2 2 2 3 3 4 3 3 3 2 2 2 2 2 2 2 3 3 4 4 5 5 6 5 5 6 7 7 7 7 8 8
4 4 5 4 4 2 1 2 1 1 1 2 2 2 3 3 4 4 3 3 3 3 4 3 3 3 3 3 3 3 4 4 5 5 5 5 6 6 6 6 6 7 8
5 5 5 5 4 2 1 1 1 1 2 2 2 2 2 3 3 4 4 4 4 4 4 4 5 4 4 3 3 3 3 4 4 4 4 4 5 5 5 6 6 6 7
6 6 6 6 5 3 2 2 2 2 2 2 2 2 2 2 3 4 4 4 4 4 5 5 6 5 5 4 4 4 4 4 4 4 4 4 4 4 4 5 5 6 6
6 6 6 6 5 4 3 3 3 2 2 3 3 3 2 3 4 4 4 4 5 5 6 6 6 5 5 5 5 4 4 3 3 3 3 3 4 3 3 4 5 5 6
7 6 7 6 5 5 4 4 3 2 2 2 3 3 3 4 4 5 6 5 5 5 6 6 6 5 5 5 5 4 4 3 3 2 2 2 3 2 2 3 4 4 5
8 8 7 7 6 6 5 4 3 2 2 2 2 3 3 4 5 6 6 6 5 6 6 6 6 5 5 5 5 5 4 3 3 2 2 2 2 2 2 2 2 3 3
9 8 8 8 6 6 5 4 4 3 2 2 3 3 3 4 5 5 6 6 5 5 6 6 6 5 5 5 5 5 4 4 4 2 2 1 2 2 2 1 2 2 3
10 10 9 8 7 6 6 5 4 4 3 3 3 3 4 4 5 5 6 6 6 6 6 6 6 6 6 5 5 5 5 4 4 3 3 3 2 2 1 1 1 2 2
11 11 10 9 8 7 6 6 5 4 4 3 4 4 4 5 5 5 5 5 6 6 6 5 5 5 5 5 5 4 4 4 3 2 3 3 2 1 0 1 1 2 2
12 11 11 9 8 8 7 6 6 4 5 4 4 4 4 4 5 5 5 5 5 6 6 5 5 5 4 4 3 3 2 2 2 2 3 3 1 1 1 2 2 3 3

GEFSSE_500_meanwind_180.txt.gz
Wind_Speed
1 1 1 1 0 1 1 1 2 1 1 1 2 2 3 3 3 3 3 4 5 5 5 5 5 6 7 7 8 8 8 9 8 8 8 8 8 7 7 7 8 9 9
1 1 0 1 1 2 2 2 2 2 3 3 3 3 4 4 4 4 4 4 5 6 7 6 6 7 7 8 8 8 9 9 9 9 9 8 8 8 8 8 8 9 9
2 1 2 2 2 2 2 3 3 3 4 4 4 4 4 5 5 5 5 5 6 6 7 7 7 7 8 8 9 9 9 10 10 10 10 9 9 9 8 8 8 9 9
3 3 3 2 2 3 4 5 4 4 5 5 4 5 5 5 6 6 6 6 6 7 7 7 8 8 8 9 9 9 10 10 11 11 11 10 9 9 8 8 8 9 9
4 4 4 3 3 4 5 5 5 5 5 5 5 5 5 5 6 7 7 6 6 7 7 7 8 9 9 10 10 10 10 10 11 11 11 11 10 10 9 9 9 10 10
5 5 4 3 4 5 5 5 5 5 5 5 5 5 5 5 6 6 5 6 6 7 7 7 8 9 9 10 10 10 11 11 11 11 12 11 11 11 10 10 9 10 10
6 5 4 4 5 5 5 5 5 5 5 5 5 5 5 5 6 5 5 5 7 7 7 7 7 8 9 9 10 10 11 11 12 12 12 11 11 11 11 11 10 10 10
7 6 4 5 6 6 6 6 6 6 5 5 5 5 5 5 5 5 5 5 6 6 7 7 7 7 8 9 10 10 10 11 11 11 12 12 12 12 12 12 12 11 10
7 6 5 5 6 6 6 6 5 5 5 5 5 5 5 5 5 5 5 5 5 6 6 7 7 8 8 9 9 10 10 10 10 11 11 12 12 12 12 12 12 12 11
6 5 5 6 5 5 6 6 5 6 5 5 5 4 4 5 5 4 5 5 5 5 6 6 7 8 8 8 9 9 9 9 10 10 11 11 12 12 12 12 12 12 12
6 5 5 5 5 5 5 6 5 5 4 5 5 4 4 4 5 4 5 5 5 5 4 5 6 7 8 8 9 9 9 9 9 10 11 11 11 12 12 12 12 12 12
6 5 5 5 5 5 4 4 4 4 4 4 4 3 4 4 4 4 4 4 4 4 3 3 4 7 8 8 8 8 9 9 9 9 10 10 11 12 12 12 12 12 12
5 5 5 5 5 5 4 4 4 4 3 3 2 2 2 3 3 3 3 3 3 4 3 3 4 5 6 7 7 7 7 8 8 8 8 9 10 11 11 11 11 11 12
5 5 5 5 5 5 4 3 3 4 3 2 2 2 2 2 2 1 1 2 2 3 3 3 3 4 5 6 6 6 6 7 7 7 8 8 9 10 10 10 11 12 12
6 6 6 5 5 4 4 3 3 3 2 2 3 2 2 1 1 1 0 0 1 2 2 2 2 4 4 5 6 6 6 7 7 7 7 7 8 8 9 10 10 10 11
6 6 6 5 5 4 4 3 3 2 2 2 2 2 1 1 1 1 1 0 1 1 2 2 3 3 4 5 5 5 5 6 6 6 7 7 7 8 8 9 9 10 10
6 6 6 5 5 4 3 3 2 2 2 2 1 1 1 1 0 0 0 0 1 1 2 2 3 3 4 4 4 4 5 5 5 5 5 6 6 7 7 8 8 8 9
6 6 6 5 5 4 4 3 2 2 1 1 1 1 1 1 0 0 0 1 1 2 2 2 3 4 4 4 3 3 4 4 5 5 4 4 5 6 6 6 7 8 8
6 6 6 6 6 5 4 3 3 2 1 1 1 1 1 0 0 1 1 1 1 2 2 3 4 4 4 4 3 3 3 4 4 5 5 4 5 5 6 6 6 7 7
7 7 7 7 6 5 4 4 3 2 1 1 1 1 0 1 1 1 1 1 2 2 3 3 4 5 4 4 3 3 3 3 4 4 4 4 5 5 6 6 6 6 7
7 7 8 7 7 6 5 4 3 2 1 2 1 1 1 1 1 1 1 2 2 3 4 4 4 5 5 4 3 2 2 2 3 4 4 4 5 5 5 5 6 6 6
8 8 8 8 7 6 5 5 4 3 2 2 2 2 2 2 2 2 3 3 3 3 4 4 4 4 4 3 2 2 2 2 2 3 4 4 4 4 5 4 4 5 5
8 8 8 8 8 7 6 5 4 3 3 2 2 2 2 2 2 3 3 3 3 3 4 4 4 4 4 3 2 2 2 1 1 3 3 3 3 3 4 3 4 5 6
9 8 8 8 8 7 6 5 4 4 3 2 2 3 2 2 2 3 3 3 3 3 4 4 4 4 4 4 3 3 2 1 2 2 2 2 2 3 3 4 5 5 5
9 9 9 9 8 8 7 6 5 4 4 3 2 3 2 2 3 3 3 3 3 4 4 4 4 4 4 4 3 3 2 2 2 2 1 2 2 2 3 3 3 3 3
10 10 10 10 9 8 7 7 6 5 5 4 3 3 3 3 4 4 4 3 3 4 4 4 4 3 3 3 2 2 1 1 1 1 1 1 0 1 2 3 3 3 3

GEFSSE_500_meanwind_186.txt.gz
Wind_Speed
6 5 5 4 4 5 5 5 5 5 4 3 3 4 4 4 5 5 5 5 5 5 6 6 7 7 7 7 7 7 8 8 8 7 6 6 6 6 6 6 6 5 6
6 5 5 6 6 5 5 6 6 5 4 4 5 5 5 5 5 6 6 6 6 6 7 7 7 8 8 8 8 8 8 8 8 8 8 7 7 7 7 6 6 6 6
6 6 6 7 7 7 6 6 6 6 5 5 6 5 6 5 5 6 6 6 6 7 7 8 8 9 8 9 9 8 8 8 8 9 8 8 8 8 7 7 8 7 7
7 7 7 8 8 8 7 7 7 7 6 6 6 6 6 5 5 6 6 6 6 7 7 8 8 8 8 9 9 9 9 9 9 9 9 9 8 8 8 8 7 8 7
7 8 8 8 8 8 7 7 7 8 7 6 6 6 6 5 6 6 6 7 7 7 8 8 8 8 9 9 10 10 9 10 9 9 10 9 9 8 8 8 7 8 8
8 9 9 9 8 8 7 7 7 8 7 6 6 6 6 6 6 6 7 8 8 7 8 8 9 8 9 9 10 10 10 9 10 10 10 9 9 9 9 9 8 8 9
9 9 9 8 8 8 7 7 7 7 6 7 7 6 6 6 5 5 6 7 8 8 8 8 9 8 9 9 10 10 10 10 10 10 10 10 9 10 10 10 10 9 9
9 9 8 8 8 8 8 8 7 7 7 6 6 6 6 6 6 6 6 6 6 7 7 8 8 8 9 9 9 10 10 10 9 10 11 10 10 10 10 11 11 11 11
9 8 8 8 9 8 8 8 8 8 8 7 6 6 6 6 6 6 6 6 6 6 7 8 8 8 8 8 8 9 10 10 10 10 11 11 11 10 11 11 11 11 11
9 7 7 8 8 8 8 7 7 7 7 7 7 6 6 6 6 6 6 6 6 6 6 6 6 7 7 7 7 8 9 9 10 11 11 11 11 11 11 12 11 11 12
7 7 6 7 7 7 7 6 6 7 7 7 7 6 5 6 6 6 6 6 5 5 4 4 5 5 6 6 7 7 8 9 10 10 11 11 12 12 12 12 12 11 12
7 7 6 7 7 6 7 7 6 6 7 7 6 6 5 5 5 5 5 5 5 4 4 3 4 5 6 6 6 7 8 8 9 9 10 11 11 11 12 12 11 11 11
8 7 7 7 7 7 7 7 7 6 6 6 6 4 4 5 4 4 4 4 4 4 3 3 4 5 5 5 6 6 7 8 8 8 9 10 10 10 10 11 11 10 10
8 8 8 7 7 7 7 6 6 5 6 6 5 4 4 4 4 4 4 4 3 3 3 2 2 3 2 3 3 3 4 5 5 6 7 8 8 8 9 10 10 11 11
9 9 9 8 8 7 6 6 5 5 5 5 5 4 4 3 4 4 3 3 2 3 2 2 2 1 2 2 2 2 3 5 4 5 5 7 7 7 8 8 9 10 11
9 9 8 8 7 6 5 4 4 5 5 5 5 4 4 4 4 4 3 2 2 2 1 1 2 2 2 2 2 3 3 4 4 5 5 6 7 7 7 7 8 9 9
8 8 7 6 5 5 5 4 4 4 4 5 5 5 4 4 4 3 3 2 2 1 1 1 1 1 1 1 2 2 2 3 3 4 4 5 6 6 6 6 7 8 8
8 7 7 6 5 4 4 3 4 4 4 5 5 5 4 4 4 4 3 2 2 2 2 1 1 1 0 1 1 1 1 1 2 3 3 3 4 4 5 5 5 6 7
8 7 6 5 5 4 5 4 3 4 4 4 4 4 4 3 4 4 3 2 2 2 2 1 1 1 0 1 1 1 1 2 2 2 3 3 3 3 4 5 5 6 6
7 6 6 5 5 4 4 3 3 4 4 3 4 4 3 3 3 3 3 2 1 1 1 1 1 1 1 0 1 2 2 2 2 2 3 3 3 3 3 5 5 6 6
7 6 5 5 5 4 3 3 3 3 3 3 4 3 2 2 3 2 2 2 1 1 2 1 0 1 1 0 1 2 2 2 2 3 3 2 2 2 3 4 5 5 6
7 6 6 5 5 4 4 4 3 3 3 3 3 3 2 2 2 2 1 1 1 1 1 1 0 0 1 1 1 2 2 2 2 2 2 2 2 2 3 4 5 5 5
7 7 6 5 5 4 4 4 3 3 3 3 2 2 2 2 2 1 1 1 1 1 1 0 1 1 1 1 1 1 2 2 2 2 2 3 3 3 3 4 5 5 6
7 7 6 5 5 5 4 4 4 3 3 3 2 2 2 1 1 1 0 0 1 1 0 1 1 1 1 0 1 1 2 2 2 3 3 3 3 4 4 5 5 5 5
7 7 7 6 5 5 5 4 4 4 3 3 3 3 2 1 1 1 0 0 0 1 1 1 1 1 1 1 1 2 2 3 3 2 3 3 4 5 5 5 6 5 5
8 8 8 7 6 6 5 5 5 4 4 3 3 3 2 2 1 0 0 1 1 1 1 1 1 1 1 1 2 2 2 3 3 3 3 4 5 5 5 5 6 6 6

GEFSSE_500_meanwind_192.txt.gz
Wind_Speed
4 4 4 4 4 5 6 6 6 6 5 5 6 6 6 6 6 7 7 7 7 6 7 8 8 8 8 8 9 9 10 9 10 9 9 8 8 8 7 6 5 5 5
4 4 5 5 5 6 6 6 6 6 6 5 6 6 7 7 7 8 8 8 8 8 8 9 9 9 9 9 9 9 10 10 10 10 10 9 8 8 7 7 6 6 6
4 5 6 6 6 7 7 7 6 6 6 6 6 6 7 7 7 8 9 9 9 9 9 10 10 10 10 10 10 10 10 10 10 10 10 10 9 8 7 7 7 6 7
6 6 5 6 6 7 8 7 7 7 7 6 7 7 7 7 7 8 9 9 9 10 10 10 11 10 10 10 10 10 11 11 11 11 11 10 9 9 8 8 7 7 7
6 6 5 6 7 7 7 8 7 7 6 7 7 7 7 7 6 7 8 8 9 9 9 10 10 10 10 10 10 11 11 11 11 11 11 10 10 9 9 9 8 8 8
6 6 6 7 7 7 7 7 7 6 5 5 6 6 6 6 6 7 7 8 8 8 9 9 10 10 10 10 10 10 12 12 12 11 11 11 11 10 10 10 9 8 8
7 7 6 6 6 6 7 6 5 4 5 5 5 5 6 6 6 7 7 6 7 8 8 9 9 9 9 9 9 10 11 12 12 11 11 11 11 11 10 10 10 9 9
7 7 6 7 6 7 6 5 4 5 4 5 5 5 5 6 6 6 7 6 6 7 8 8 9 9 9 9 9 10 11 11 11 11 11 11 11 11 11 11 10 10 10
7 7 6 6 6 5 5 5 5 5 4 5 5 5 6 6 6 5 6 6 5 6 7 8 8 8 8 9 9 10 10 10 11 11 11 11 12 11 11 11 11 11 11
7 6 5 5 5 5 5 5 5 5 5 5 5 5 5 5 5 5 6 5 5 5 6 7 7 7 7 7 7 8 8 9 10 10 11 11 11 11 11 11 11 11 11
7 6 5 5 5 5 5 5 5 5 4 5 5 4 5 5 5 5 5 5 5 5 5 5 6 7 7 7 7 7 7 8 9 10 10 11 11 11 11 11 11 11 11
7 6 5 5 5 5 5 5 5 4 4 4 4 4 4 4 4 4 4 4 4 4 4 4 6 6 6 6 7 7 7 8 8 9 10 10 10 10 11 11 11 11 11
6 6 6 5 4 4 4 4 4 4 4 3 3 3 3 3 3 4 3 4 4 3 4 4 5 5 5 5 6 6 6 7 8 9 9 9 10 10 10 11 11 11 11
6 6 6 5 4 3 4 3 3 4 3 3 2 3 3 2 2 2 3 3 3 3 3 4 4 5 5 5 5 6 6 6 7 8 9 9 9 9 9 9 10 10 10
7 7 5 4 3 3 3 3 3 3 3 2 2 2 2 2 2 2 2 2 2 3 3 4 3 3 4 4 4 4 4 5 6 7 7 8 8 8 8 8 9 9 9
7 6 5 4 3 2 3 3 2 2 2 2 3 3 3 2 2 2 2 1 2 2 3 3 2 2 3 3 3 3 3 3 4 5 5 6 7 7 8 8 8 9 9
7 6 5 4 3 2 3 3 2 2 2 2 3 3 3 3 3 2 2 2 1 2 3 2 2 2 2 2 2 1 2 2 3 3 4 4 6 7 7 7 7 8 7
6 6 5 4 3 2 2 2 2 2 2 2 2 3 3 2 2 1 1 2 2 2 2 2 1 1 1 2 1 1 1 2 3 3 3 3 4 5 5 6 7 6 6
6 5 4 4 3 2 2 2 2 2 2 2 2 3 2 2 1 1 1 1 2 3 3 2 2 1 1 1 1 1 1 1 2 2 3 3 3 4 4 4 5 5 6
5 4 4 3 3 2 2 2 2 2 1 2 2 2 2 1 1 1 1 1 2 3 3 2 2 1 1 1 1 1 1 1 1 2 2 2 3 3 4 4 5 4 4
4 4 4 3 2 2 3 3 2 2 2 2 2 2 2 1 0 0 1 1 2 3 3 2 2 2 1 1 1 1 1 2 1 1 1 1 2 2 3 4 4 4 4
4 4 3 3 2 3 3 3 3 2 2 2 2 2 2 1 0 0 1 2 2 2 2 2 2 2 2 1 1 1 1 1 1 1 1 1 2 3 3 4 5 5 5
5 4 4 3 3 3 4 4 3 2 2 2 2 2 1 1 0 1 1 2 2 2 2 2 1 2 2 2 1 1 1 1 2 2 2 2 3 3 4 5 5 6 6
5 4 4 4 4 4 4 4 3 3 3 2 2 1 1 1 0 1 1 1 2 2 2 2 1 2 2 2 1 1 1 1 2 2 3 3 4 4 5 5 5 6 6
4 5 5 4 4 4 4 4 4 4 3 3 2 2 1 1 1 1 1 2 2 2 2 2 2 1 1 1 2 2 2 2 2 3 3 4 4 5 5 5 6 6 6
5 5 5 5 5 5 5 5 5 4 4 3 3 2 1 1 1 2 1 2 2 2 2 2 2 1 1 1 2 2 2 3 3 4 4 5 5 5 6 6 6 6 7